Location: Omaha
(41.2590°N, 95.9380°W)
Time: 14:19:44
(UTC-05:00)

OTV 5 (USA 277) - Pass Details

Date: 11 October 2017
Orbit: 404 x 417 km, 43.0° (Epoch: 07 September)

Event Time Altitude Azimuth Distance (km) Brightness Sun altitude
Rises 21:02:06 0° 263° (W) 2,351 ? -25.8°
Reaches altitude 10° 21:04:13 10° 265° (W) 1,489 ? -26.1°
Enters shadow 21:05:49 26° 270° (W) 869 ? -26.4°
